DW4300 Weather Reports


time (UTC)temp
C
wind
direction
speed
KPH
gust
KPH
rain 1hr
cm
rain 24hr
cm
rain mn
cm
humidity
%
barometer
mb
20260906131503 22 31 9.7 16.1 0.00 0.00 0.00 90 1015.2
20260906131003 22 28 9.7 16.1 0.00 0.00 0.00 90 1015.2
20260906130504 22 28 9.7 16.1 0.00 0.00 0.00 89 1015.2
20260906125503 22 19 8.0 16.1 0.00 0.00 0.00 89 1015.2
20260906125005 22 20 8.0 14.5 0.00 0.00 0.00 89 1015.0
20260906124502 22 15 8.0 14.5 0.00 0.00 0.00 89 1014.9
20260906124003 22 13 8.0 16.1 0.00 0.00 0.00 89 1014.9
20260906123504 22 17 9.7 16.1 0.00 0.00 0.00 89 1014.8
20260906123003 22 21 6.4 16.1 0.00 0.00 0.00 89 1014.7
20260906122004 22 27 4.8 11.3 0.00 0.00 0.00 89 1014.6
20260906121503 22 30 4.8 8.0 0.00 0.00 0.00 90 1014.6
20260906121003 21 32 4.8 8.0 0.00 0.00 0.00 90 1014.4
20260906120504 21 27 3.2 6.4 0.00 0.00 0.00 90 1014.2
20260906120003 21 42 3.2 6.4 0.00 0.00 0.00 90 1014.1
20260906115503 21 47 3.2 6.4 0.00 0.00 0.00 90 1014.1
20260906115004 21 45 4.8 9.7 0.00 0.00 0.00 90 1014.0
20260906114503 21 37 6.4 14.5 0.00 0.00 0.00 89 1014.0
20260906114003 21 28 9.7 16.1 0.00 0.00 0.00 89 1013.8
20260906113504 21 23 11.3 17.7 0.00 0.00 0.00 89 1013.8
20260906113003 21 27 12.9 17.7 0.00 0.00 0.00 89 1013.8
20260906112503 21 34 12.9 20.9 0.00 0.00 0.00 89 1013.5
20260906112004 21 35 14.5 22.5 0.00 0.00 0.00 89 1013.5
20260906111503 21 33 14.5 22.5 0.00 0.00 0.00 89 1013.5
20260906111002 21 25 12.9 22.5 0.00 0.00 0.00 89 1013.6
20260906110505 21 21 11.3 22.5 0.00 0.00 0.00 89 1013.6
20260906110003 21 21 8.0 14.5 0.00 0.00 0.00 89 1013.5
20260906105502 21 27 11.3 20.9 0.00 0.00 0.00 89 1013.4
20260906104502 21 27 12.9 22.5 0.00 0.00 0.00 89 1013.4
20260906104003 21 28 12.9 17.7 0.00 0.00 0.00 90 1013.5
20260906103504 21 27 12.9 19.3 0.00 0.00 0.00 90 1013.5
20260906103002 21 27 11.3 20.9 0.00 0.00 0.00 89 1013.5
20260906102503 21 29 14.5 22.5 0.00 0.00 0.00 89 1013.4
20260906102004 21 28 14.5 22.5 0.00 0.00 0.00 89 1013.4
20260906101503 21 27 14.5 20.9 0.00 0.00 0.00 89 1013.4
20260906101003 21 28 14.5 20.9 0.00 0.00 0.00 89 1013.3
20260906100002 21 33 11.3 17.7 0.00 0.00 0.00 89 1013.1
20260906095503 21 36 11.3 17.7 0.00 0.00 0.00 89 1013.0
20260906095004 21 33 14.5 22.5 0.00 0.00 0.00 89 1013.1
20260906094503 21 32 14.5 22.5 0.00 0.00 0.00 89 1013.1
20260906094002 21 34 12.9 22.5 0.00 0.00 0.00 89 1013.1
20260906093504 21 33 14.5 20.9 0.00 0.00 0.00 89 1013.1
20260906093002 21 30 14.5 20.9 0.00 0.00 0.00 89 1013.1
20260906092503 21 25 11.3 20.9 0.00 0.00 0.00 89 1013.1
20260906092004 21 20 8.0 17.7 0.00 0.00 0.00 88 1012.9
20260906091002 21 16 6.4 11.3 0.00 0.00 0.00 88 1012.8
20260906090504 21 16 6.4 12.9 0.00 0.00 0.00 88 1012.8
20260906085503 22 18 6.4 14.5 0.00 0.00 0.00 88 1012.6
20260906085004 22 20 6.4 12.9 0.00 0.00 0.00 88 1012.6
20260906084502 22 19 8.0 12.9 0.00 0.00 0.00 88 1012.6
20260906084003 22 21 8.0 12.9 0.00 0.00 0.00 88 1012.7
20260906083003 22 24 8.0 14.5 0.00 0.00 0.00 88 1012.7
20260906082502 22 19 8.0 14.5 0.00 0.00 0.00 88 1012.8
20260906082005 22 14 8.0 14.5 0.00 0.00 0.00 88 1012.8
20260906081502 22 14 8.0 14.5 0.00 0.00 0.00 88 1012.8
20260906081002 22 16 8.0 12.9 0.00 0.00 0.00 87 1012.9
20260906080504 22 17 8.0 12.9 0.00 0.00 0.00 87 1012.8
20260906080003 22 25 8.0 12.9 0.00 0.00 0.00 87 1012.8
20260906075502 23 25 9.7 14.5 0.00 0.00 0.00 87 1012.8
20260906075004 23 21 9.7 14.5 0.00 0.00 0.00 87 1012.8
20260906074503 23 20 8.0 14.5 0.00 0.00 0.00 87 1012.8
20260906074002 23 17 8.0 12.9 0.00 0.00 0.00 87 1012.8
20260906073504 23 14 8.0 16.1 0.00 0.00 0.00 87 1012.8
20260906073003 23 13 6.4 16.1 0.00 0.00 0.00 87 1012.9
20260906072502 23 19 4.8 12.9 0.00 0.00 0.00 86 1012.8
20260906071503 23 36 3.2 6.4 0.00 0.00 0.00 86 1012.9
20260906071002 23 45 3.2 8.0 0.00 0.00 0.00 86 1012.8
20260906070504 23 40 4.8 8.0 0.00 0.00 0.00 86 1012.8
20260906070003 23 37 6.4 11.3 0.00 0.00 0.00 86 1012.7
20260906065502 23 31 8.0 11.3 0.00 0.00 0.00 86 1012.8
20260906065004 23 26 6.4 9.7 0.00 0.00 0.00 86 1012.8
20260906064502 24 27 6.4 8.0 0.00 0.00 0.00 85 1012.8
20260906064002 24 38 4.8 8.0 0.00 0.00 0.00 85 1012.8
20260906063504 24 46 4.8 8.0 0.00 0.00 0.00 85 1012.8
20260906063002 24 46 4.8 8.0 0.00 0.00 0.00 85 1012.7
20260906062502 24 44 4.8 8.0 0.00 0.00 0.00 85 1012.8
20260906062004 25 41 3.2 6.4 0.00 0.00 0.00 84 1012.8
20260906061503 25 46 3.2 6.4 0.00 0.00 0.00 84 1012.8
20260906061002 25 52 4.8 6.4 0.00 0.00 0.00 84 1012.8
20260906060504 25 48 3.2 6.4 0.00 0.00 0.00 84 1012.8
20260906060002 25 43 4.8 6.4 0.00 0.00 0.00 84 1013.0
20260906055502 25 44 6.4 14.5 0.00 0.00 0.00 84 1012.9
20260906055004 25 45 8.0 14.5 0.00 0.00 0.00 84 1012.9
20260906053504 25 44 4.8 12.9 0.00 0.00 0.00 83 1012.9
20260906053002 25 43 4.8 12.9 0.00 0.00 0.00 83 1013.1
20260906052503 26 38 4.8 12.9 0.00 0.00 0.00 83 1013.0
20260906052004 26 32 6.4 12.9 0.00 0.00 0.00 83 1013.0
20260906051502 26 29 8.0 12.9 0.00 0.00 0.00 83 1013.0
20260906050503 26 33 8.0 12.9 0.00 0.00 0.00 83 1013.0
20260906050003 26 35 8.0 17.7 0.00 0.00 0.00 82 1012.9
20260906045503 26 39 9.7 17.7 0.00 0.00 0.00 83 1012.6
20260906045004 26 39 9.7 14.5 0.00 0.00 0.00 82 1012.5
20260906044002 27 42 9.7 14.5 0.00 0.00 0.00 82 1012.4
20260906043503 27 40 11.3 25.7 0.00 0.00 0.00 82 1012.4
20260906042502 27 39 11.3 19.3 0.00 0.00 0.00 82 1012.3
20260906042004 27 35 11.3 17.7 0.00 0.00 0.00 82 1012.4
20260906041502 27 35 11.3 19.3 0.00 0.00 0.00 82 1012.5
20260906041002 27 35 12.9 22.5 0.00 0.00 0.00 82 1012.4
20260906040505 27 34 14.5 22.5 0.00 0.00 0.00 82 1012.5
20260906040003 27 31 12.9 22.5 0.00 0.00 0.00 82 1012.4
20260906035503 28 28 14.5 24.1 0.00 0.00 0.00 81 1012.2
20260906035004 28 26 14.5 24.1 0.00 0.00 0.00 81 1012.2
20260906034502 28 29 14.5 22.5 0.00 0.00 0.00 81 1012.2
20260906033504 28 29 12.9 19.3 0.00 0.00 0.00 81 1011.9
20260906033002 28 28 11.3 20.9 0.00 0.00 0.00 81 1011.9
20260906032502 28 29 11.3 20.9 0.00 0.00 0.00 81 1011.9
20260906032003 28 29 9.7 16.1 0.00 0.00 0.00 81 1011.9
20260906031502 27 25 8.0 12.9 0.00 0.00 0.00 80 1011.7
20260906030504 28 28 3.2 8.0 0.00 0.00 0.00 79 1011.7
20260906030002 28 27 0.0 6.4 0.00 0.00 0.00 78 1011.6
20260906025503 28 0 0.0 0.0 0.00 0.00 0.00 78 1011.6
20260906025003 28 0 0.0 0.0 0.00 0.00 0.00 78 1011.6
20260906024503 28 0 0.0 0.0 0.00 0.00 0.00 77 1011.5
20260906024002 28 0 0.0 0.0 0.00 0.00 0.00 77 1011.5
20260906023504 28 0 0.0 0.0 0.00 0.00 0.00 76 1011.5
20260906022502 28 0 0.0 0.0 0.00 0.00 0.00 76 1011.3
20260906022003 28 0 0.0 0.0 0.00 0.00 0.00 76 1011.2
20260906021503 29 0 0.0 0.0 0.00 0.00 0.00 75 1011.1
20260906020503 29 0 0.0 0.0 0.00 0.00 0.00 74 1010.9
20260906015502 30 0 0.0 0.0 0.00 0.00 0.00 73 1010.9
20260906014502 30 0 0.0 0.0 0.00 0.00 0.00 73 1010.8
20260906014002 30 0 0.0 0.0 0.00 0.00 0.00 73 1010.7
20260906013504 30 0 0.0 0.0 0.00 0.00 0.00 72 1010.8
20260906012502 30 0 0.0 0.0 0.00 0.00 0.00 71 1010.7
20260906011502 30 0 0.0 0.0 0.00 0.00 0.00 70 1010.7
20260906011002 30 0 0.0 0.0 0.00 0.00 0.00 70 1010.6
20260906010504 30 0 0.0 0.0 0.00 0.00 0.00 69 1010.6
20260906010003 30 0 0.0 0.0 0.00 0.00 0.00 69 1010.5
20260906005502 31 0 0.0 0.0 0.00 0.00 0.00 68 1010.4
20260906005004 31 0 0.0 0.0 0.00 0.00 0.00 67 1010.2
20260906004003 31 0 0.0 0.0 0.00 0.00 0.00 66 1010.2
20260906003503 31 0 0.0 0.0 0.00 0.00 0.00 66 1010.1
20260906003002 31 0 0.0 0.0 0.00 0.00 0.00 65 1010.2
20260906002503 32 0 0.0 0.0 0.00 0.00 0.00 64 1010.2
20260906001003 32 37 3.2 4.8 0.00 0.00 0.00 63 1010.3
20260906000504 32 37 3.2 4.8 0.00 0.00 0.00 62 1010.3
20260906000002 32 37 3.2 4.8 0.00 0.00 0.00 61 1010.3
20260905235503 33 36 3.2 4.8 0.00 0.00 0.00 60 1010.3
20260905234002 33 38 4.8 6.4 0.00 0.00 0.00 58 1010.2
20260905233503 33 30 4.8 6.4 0.00 0.00 0.00 58 1010.2
20260905233002 33 13 4.8 11.3 0.00 0.00 0.00 57 1010.2
20260905232503 34 15 6.4 12.9 0.00 0.00 0.00 57 1010.2
20260905232004 34 23 6.4 12.9 0.00 0.00 0.00 56 1010.2
20260905231502 34 30 6.4 9.7 0.00 0.00 0.00 56 1010.0
20260905231002 35 19 6.4 14.5 0.00 0.00 0.00 55 1010.0
20260905230504 35 4 8.0 14.5 0.00 0.00 0.00 55 1010.1
20260905230002 35 2 6.4 12.9 0.00 0.00 0.00 54 1009.9
20260905225502 35 2 9.7 17.7 0.00 0.00 0.00 53 1010.0
20260905224502 35 1 12.9 24.1 0.00 0.00 0.00 52 1009.9
20260905224002 35 3 14.5 22.5 0.00 0.00 0.00 52 1010.0
20260905223003 36 3 11.3 19.3 0.00 0.00 0.00 51 1009.9
20260905222502 36 6 12.9 19.3 0.00 0.00 0.00 51 1009.9
20260905222003 36 5 12.9 20.9 0.00 0.00 0.00 50 1009.9
20260905220503 36 355 11.3 19.3 0.00 0.00 0.00 50 1009.8
20260905220002 36 355 11.3 20.9 0.00 0.00 0.00 50 1010.0
20260905215502 36 358 11.3 20.9 0.00 0.00 0.00 49 1009.8
20260905215004 36 347 9.7 20.9 0.00 0.00 0.00 49 1009.8
20260905214502 36 344 9.7 19.3 0.00 0.00 0.00 50 1009.8
20260905214002 36 349 11.3 19.3 0.00 0.00 0.00 50 1009.7
20260905213002 35 344 8.0 17.7 0.00 0.00 0.00 52 1009.8
20260905212502 35 335 8.0 14.5 0.00 0.00 0.00 52 1009.9
20260905211502 35 338 11.3 20.9 0.00 0.00 0.00 50 1010.1
20260905211002 35 339 12.9 22.5 0.00 0.00 0.00 49 1010.1
20260905210002 36 353 14.5 25.7 0.00 0.00 0.00 49 1010.2
20260905205502 36 351 16.1 27.4 0.00 0.00 0.00 48 1010.2
20260905205004 36 345 16.1 30.6 0.00 0.00 0.00 47 1010.3
20260905204502 36 348 16.1 30.6 0.00 0.00 0.00 48 1010.3
20260905204002 37 349 11.3 27.4 0.00 0.00 0.00 47 1010.3
20260905203503 37 337 9.7 24.1 0.00 0.00 0.00 47 1010.1
20260905203002 37 336 9.7 24.1 0.00 0.00 0.00 46 1010.2
20260905202502 37 337 8.0 19.3 0.00 0.00 0.00 46 1010.3
20260905201003 37 317 8.0 24.1 0.00 0.00 0.00 46 1010.4
20260905200002 37 356 11.3 19.3 0.00 0.00 0.00 46 1010.5
20260905195502 37 350 11.3 19.3 0.00 0.00 0.00 47 1010.5
20260905195004 37 333 11.3 19.3 0.00 0.00 0.00 47 1010.5
20260905194502 37 322 9.7 19.3 0.00 0.00 0.00 47 1010.6
20260905194002 37 299 6.4 17.7 0.00 0.00 0.00 47 1010.5
20260905193504 37 278 6.4 17.7 0.00 0.00 0.00 46 1010.6
20260905193002 37 272 6.4 17.7 0.00 0.00 0.00 47 1010.5
20260905192502 37 307 3.2 16.1 0.00 0.00 0.00 47 1010.6
20260905192003 37 305 3.2 9.7 0.00 0.00 0.00 49 1010.7
20260905191001 36 275 4.8 11.3 0.00 0.00 0.00 50 1010.9
20260905190503 36 275 6.4 16.1 0.00 0.00 0.00 50 1010.9
20260905190002 36 269 6.4 16.1 0.00 0.00 0.00 48 1011.0
20260905185502 36 264 6.4 16.1 0.00 0.00 0.00 50 1011.1
20260905184501 36 264 4.8 11.3 0.00 0.00 0.00 50 1011.2
20260905184002 36 245 4.8 9.7 0.00 0.00 0.00 52 1011.3
20260905183504 36 295 4.8 16.1 0.00 0.00 0.00 53 1011.5
20260905183002 36 307 6.4 17.7 0.00 0.00 0.00 52 1011.5
20260905182502 36 283 6.4 17.7 0.00 0.00 0.00 53 1011.6
20260905182004 36 264 3.2 11.3 0.00 0.00 0.00 55 1011.5
20260905181501 35 241 3.2 8.0 0.00 0.00 0.00 55 1011.5
20260905181001 35 231 3.2 12.9 0.00 0.00 0.00 55 1011.6
20260905180504 35 245 4.8 14.5 0.00 0.00 0.00 56 1011.7
20260905180002 35 236 6.4 14.5 0.00 0.00 0.00 55 1011.7
20260905175502 35 235 6.4 12.9 0.00 0.00 0.00 56 1011.7
20260905175003 35 235 4.8 12.9 0.00 0.00 0.00 57 1011.8
20260905174002 35 276 4.8 12.9 0.00 0.00 0.00 58 1011.9
20260905173002 35 243 4.8 14.5 0.00 0.00 0.00 58 1011.9
20260905172502 35 241 6.4 16.1 0.00 0.00 0.00 59 1011.9
20260905172003 35 248 4.8 16.1 0.00 0.00 0.00 61 1012.0
20260905171502 34 261 3.2 12.9 0.00 0.00 0.00 61 1012.1
20260905171001 34 226 4.8 12.9 0.00 0.00 0.00 61 1012.2
20260905170503 34 221 6.4 12.9 0.00 0.00 0.00 61 1012.3
20260905165502 33 242 4.8 11.3 0.00 0.00 0.00 62 1012.4
20260905165003 33 226 4.8 11.3 0.00 0.00 0.00 62 1012.5
20260905164502 33 219 6.4 14.5 0.00 0.00 0.00 62 1012.4
20260905164002 33 202 6.4 16.1 0.00 0.00 0.00 62 1012.5
20260905163504 33 210 4.8 16.1 0.00 0.00 0.00 63 1012.4
20260905163001 33 242 4.8 12.9 0.00 0.00 0.00 64 1012.5
20260905162502 33 234 6.4 11.3 0.00 0.00 0.00 63 1012.5
20260905162003 33 220 4.8 11.3 0.00 0.00 0.00 63 1012.7
20260905161502 33 246 3.2 9.7 0.00 0.00 0.00 64 1012.7
20260905161002 32 272 4.8 11.3 0.00 0.00 0.00 65 1012.7
20260905160503 32 267 4.8 12.9 0.00 0.00 0.00 65 1012.7
20260905160002 32 244 4.8 12.9 0.00 0.00 0.00 65 1012.6
20260905155501 32 217 4.8 14.5 0.00 0.00 0.00 66 1012.6
20260905155003 32 214 4.8 14.5 0.00 0.00 0.00 67 1012.6
20260905154501 32 224 4.8 11.3 0.00 0.00 0.00 67 1012.7
20260905154002 32 245 4.8 11.3 0.00 0.00 0.00 68 1012.8
20260905153503 32 234 4.8 9.7 0.00 0.00 0.00 69 1012.8
20260905153002 32 240 4.8 9.7 0.00 0.00 0.00 68 1012.8
20260905152003 31 250 3.2 11.3 0.00 0.00 0.00 70 1012.8
20260905151502 31 252 3.2 9.7 0.00 0.00 0.00 71 1012.8
20260905151002 31 258 4.8 9.7 0.00 0.00 0.00 70 1012.8
20260905150503 31 234 4.8 12.9 0.00 0.00 0.00 70 1012.9
20260905150002 31 232 4.8 12.9 0.00 0.00 0.00 70 1012.8
20260905145501 31 231 1.6 6.4 0.00 0.00 0.00 73 1012.8
20260905145003 31 220 3.2 8.0 0.00 0.00 0.00 73 1012.8
20260905144502 30 236 4.8 8.0 0.00 0.00 0.00 72 1012.7
20260905144002 30 237 3.2 9.7 0.00 0.00 0.00 74 1012.7
20260905143505 30 234 3.2 11.3 0.00 0.00 0.00 75 1012.7
20260905143001 30 239 3.2 11.3 0.00 0.00 0.00 76 1012.7
20260905142501 30 221 4.8 11.3 0.00 0.00 0.00 77 1012.6
20260905142003 30 215 4.8 8.0 0.00 0.00 0.00 78 1012.6
20260905141002 29 225 3.2 6.4 0.00 0.00 0.00 78 1012.8
20260905140503 29 216 1.6 6.4 0.00 0.00 0.00 80 1012.9
20260905140001 28 213 3.2 8.0 0.00 0.00 0.00 81 1012.9
20260905135502 28 211 3.2 8.0 0.00 0.00 0.00 81 1012.9
20260905135003 28 219 1.6 6.4 0.00 0.00 0.00 81 1013.0
20260905134502 28 0 0.0 0.0 0.00 0.00 0.00 83 1013.0
20260905134002 28 0 0.0 0.0 0.00 0.00 0.00 83 1013.0
20260905133503 27 0 0.0 0.0 0.00 0.00 0.00 84 1013.0
20260905133001 27 0 0.0 0.0 0.00 0.00 0.00 84 1012.9
20260905132502 27 187 0.0 4.8 0.00 0.00 0.00 85 1012.9
20260905132004 27 188 3.2 8.0 0.00 0.00 0.00 85 1012.9